Temp
21 22 21 21 20 20 20 20 19 19 18 18 18 18 18 18 18 18 17 17 17 17 17 17 17 16 16 16 16 17 17 17 17 17 17 17 16 16 16 16 15 15 15
21 21 21 21 20 20 20 19 19 18 18 18 18 18 18 17 17 17 17 17 17 17 16 16 16 16 16 16 16 16 16 17 17 17 17 16 16 16 16 16 16 16 16
20 20 20 20 20 20 19 19 18 18 18 17 17 17 17 17 17 17 16 16 16 16 16 16 16 16 16 16 16 16 16 16 17 17 17 16 15 16 17 16 16 16 16
19 20 20 19 19 19 19 18 18 17 17 17 16 16 16 16 16 16 16 16 16 15 15 15 15 15 16 16 16 16 16 16 17 17 17 15 15 16 16 16 16 16 16
17 18 19 19 18 18 18 18 17 17 17 16 16 16 16 16 16 16 16 15 15 15 15 15 15 15 15 15 16 16 16 16 16 16 16 16 16 15 16 16 16 15 15
17 16 18 18 18 18 18 18 17 17 16 16 15 15 14 15 15 15 15 15 15 15 15 15 15 15 15 15 15 15 15 16 16 16 17 16 16 15 16 16 15 15 15
18 17 17 17 17 18 18 17 16 16 16 16 16 15 15 15 15 15 15 15 15 15 15 15 15 15 15 15 15 15 15 15 16 16 16 16 16 16 16 16 15 15 15
16 17 17 17 17 17 17 17 16 16 16 16 15 15 15 15 15 15 15 15 15 15 15 14 15 14 14 14 15 14 15 15 15 16 15 16 15 15 15 15 15 15 15
16 17 17 16 16 16 16 16 15 15 15 15 15 15 15 14 14 14 14 14 14 14 14 14 14 14 14 14 14 14 14 15 15 14 15 15 15 15 15 15 15 15 15
15 15 16 16 16 16 15 15 15 15 15 15 15 14 14 14 14 14 14 15 14 14 15 14 15 14 14 14 14 14 14 14 14 14 15 15 15 15 15 15 15 14 15
14 15 15 15 16 16 15 16 15 15 15 15 14 14 14 14 14 15 15 15 15 15 14 15 15 14 14 14 13 14 14 13 13 13 14 14 13 14 13 13 14 14 14
15 15 15 14 14 15 15 15 15 15 15 15 14 14 14 12 13 16 15 15 15 15 14 14 14 14 14 13 13 13 13 13 13 13 13 13 13 12 12 12 13 14 14
14 14 14 14 13 14 14 15 15 15 15 15 15 15 13 13 14 14 14 15 14 14 15 14 14 13 14 13 13 13 13 13 13 13 13 13 12 11 12 12 12 13 13
14 15 14 14 13 14 13 14 15 14 15 15 14 14 14 15 14 13 13 14 13 13 13 12 14 15 15 15 14 14 13 12 12 12 12 12 12 12 12 12 12 12 12
15 15 14 14 13 13 13 14 14 14 15 15 15 15 15 15 14 13 13 12 12 13 14 14 14 13 14 14 14 13 13 12 11 11 11 11 11 11 12 12 12 12 11
15 16 14 14 13 13 13 14 13 13 14 13 14 15 14 14 15 15 14 14 14 13 14 14 14 14 13 12 12 11 10 11 10 10 9 9 10 10 11 11 11 11 11
17 16 15 14 13 13 13 13 13 14 13 13 13 14 15 15 15 15 14 14 14 14 14 14 14 13 12 11 12 11 10 9 10 8 8 8 8 8 9 9 10 10 9
18 18 16 15 14 12 13 12 13 13 13 12 13 14 15 15 15 14 14 13 14 14 12 12 11 12 12 10 10 9 9 9 9 9 9 8 7 7 8 10 10 9 9
20 19 17 15 14 12 13 12 13 12 12 11 12 13 14 15 14 14 14 14 13 13 12 12 12 11 11 10 10 9 9 8 8 7 7 8 8 8 8 8 8 8 8
22 20 18 16 14 13 12 12 12 11 11 11 12 13 14 14 14 13 14 14 13 13 12 12 12 12 11 10 10 9 8 8 7 7 6 6 6 7 7 5 5 6 6
23 20 18 17 14 13 12 11 11 11 11 10 11 12 13 13 13 13 14 13 11 10 11 11 11 10 11 10 10 9 8 8 7 7 6 7 5 5 6 6 5 3 3
22 19 17 16 14 13 12 11 11 11 10 10 10 10 11 12 12 12 12 12 11 11 11 11 9 9 10 10 9 10 8 7 7 7 6 6 5 5 3 4 4 4 2
21 19 17 15 13 12 11 10 10 10 10 9 9 9 9 10 10 10 9 10 10 10 10 10 10 8 8 10 10 10 10 10 8 7 6 6 6 5 4 3 3 3 2
20 18 17 16 14 12 11 10 10 10 9 8 8 8 8 9 9 9 9 9 8 7 8 8 9 8 8 8 8 9 9 9 9 7 6 5 4 4 5 4 3 2 2
18 18 16 14 13 12 11 11 10 10 9 8 7 7 7 6 7 7 8 8 7 8 8 9 9 9 7 7 6 7 7 8 8 7 5 4 3 3 3 3 2 1 1
17 16 16 14 13 12 11 11 11 10 9 8 7 6 5 5 5 5 6 6 7 8 8 8 8 8 7 7 6 6 6 6 7 7 5 4 4 3 2 1 1 -0 -0
Height
1477 1481 1485 1489 1493 1496 1499 1502 1505 1507 1509 1511 1513 1515 1517 1518 1520 1521 1522 1523 1524 1525 1527 1528 1528 1529 1530 1531 1531 1532 1532 1532 1532 1532 1532 1532 1532 1532 1532 1532 1531 1530 1530
1475 1481 1485 1489 1492 1496 1499 1502 1505 1507 1510 1511 1513 1515 1517 1519 1520 1521 1522 1524 1525 1526 1527 1529 1529 1530 1530 1531 1532 1532 1532 1533 1533 1533 1533 1532 1532 1533 1533 1532 1532 1531 1530
1474 1480 1484 1488 1492 1496 1499 1502 1505 1507 1510 1511 1513 1516 1517 1519 1521 1522 1523 1524 1526 1527 1528 1529 1530 1530 1530 1531 1531 1532 1532 1533 1533 1533 1533 1532 1532 1532 1533 1532 1532 1531 1530
1475 1481 1484 1488 1492 1495 1499 1501 1504 1507 1509 1511 1513 1516 1518 1519 1521 1522 1523 1525 1526 1527 1528 1529 1530 1530 1531 1531 1531 1532 1533 1533 1534 1534 1534 1533 1533 1533 1533 1533 1532 1531 1531
1476 1481 1483 1488 1492 1495 1498 1501 1504 1506 1509 1511 1513 1515 1517 1518 1520 1521 1523 1524 1525 1526 1527 1528 1529 1530 1531 1531 1532 1532 1533 1534 1534 1534 1535 1537 1532 1534 1533 1533 1532 1532 1531
1478 1480 1484 1487 1491 1495 1498 1500 1503 1506 1508 1510 1512 1514 1516 1517 1519 1520 1521 1523 1525 1525 1527 1528 1529 1529 1530 1531 1531 1532 1533 1534 1535 1534 1534 1533 1533 1533 1533 1533 1532 1533 1532
1477 1481 1486 1487 1491 1495 1498 1500 1502 1505 1507 1509 1512 1514 1516 1517 1518 1520 1520 1522 1523 1525 1526 1527 1528 1528 1529 1529 1530 1531 1532 1533 1534 1534 1533 1532 1532 1532 1532 1532 1532 1533 1532
1475 1480 1485 1488 1490 1493 1497 1499 1502 1505 1507 1509 1511 1513 1515 1517 1518 1519 1520 1521 1522 1523 1525 1526 1526 1527 1528 1529 1529 1530 1531 1532 1533 1535 1530 1532 1532 1532 1532 1531 1531 1532 1532
1476 1480 1483 1487 1490 1493 1496 1499 1502 1505 1507 1509 1511 1513 1515 1516 1517 1518 1519 1520 1520 1521 1522 1523 1525 1526 1527 1527 1528 1529 1530 1532 1533 1531 1530 1530 1531 1531 1530 1530 1531 1531 1531
1477 1479 1481 1485 1488 1492 1494 1498 1501 1504 1506 1509 1511 1513 1513 1515 1516 1516 1517 1518 1519 1519 1520 1522 1522 1524 1525 1526 1527 1528 1530 1531 1533 1528 1529 1529 1529 1530 1529 1529 1530 1530 1530
1476 1479 1481 1484 1486 1490 1493 1496 1499 1501 1505 1507 1509 1511 1512 1514 1514 1514 1516 1517 1518 1518 1519 1520 1520 1522 1523 1525 1527 1527 1529 1530 1531 1527 1528 1528 1528 1527 1528 1528 1528 1528 1529
1473 1477 1480 1482 1484 1487 1491 1493 1497 1500 1502 1505 1506 1510 1511 1512 1512 1513 1515 1516 1517 1517 1518 1519 1519 1520 1521 1523 1525 1526 1527 1529 1526 1527 1527 1528 1527 1527 1526 1527 1526 1528 1528
1472 1476 1477 1480 1483 1485 1487 1490 1494 1497 1500 1502 1504 1506 1508 1510 1512 1513 1514 1515 1517 1517 1517 1518 1518 1519 1520 1521 1521 1522 1525 1527 1524 1525 1526 1526 1525 1526 1525 1524 1525 1526 1526
1471 1474 1476 1478 1480 1484 1485 1488 1491 1494 1495 1498 1501 1503 1504 1507 1510 1512 1512 1513 1515 1516 1517 1518 1518 1518 1519 1520 1520 1521 1523 1524 1521 1524 1525 1523 1523 1523 1523 1524 1524 1525 1525
1469 1472 1475 1476 1477 1482 1483 1486 1488 1491 1493 1495 1497 1500 1502 1504 1507 1510 1512 1513 1514 1515 1515 1516 1516 1517 1517 1519 1520 1520 1521 1523 1521 1522 1523 1522 1522 1521 1521 1522 1523 1524 1523
1462 1465 1471 1474 1475 1479 1481 1484 1486 1487 1490 1493 1494 1497 1499 1500 1503 1505 1509 1510 1512 1513 1513 1514 1515 1517 1518 1518 1519 1520 1522 1522 1523 1521 1522 1521 1520 1520 1520 1521 1521 1521 1521
1456 1459 1461 1466 1470 1475 1478 1481 1482 1484 1486 1490 1492 1494 1495 1497 1500 1503 1505 1507 1509 1512 1513 1513 1515 1516 1517 1518 1518 1519 1521 1522 1523 1523 1521 1521 1521 1520 1519 1519 1520 1520 1520
1446 1450 1455 1459 1462 1466 1474 1477 1479 1481 1483 1487 1488 1491 1492 1494 1497 1499 1503 1504 1505 1509 1511 1512 1514 1515 1516 1518 1518 1520 1520 1520 1522 1522 1523 1523 1522 1519 1519 1519 1519 1520 1519
1439 1441 1445 1451 1455 1460 1468 1471 1476 1477 1481 1483 1485 1487 1488 1490 1494 1496 1498 1501 1504 1505 1508 1510 1512 1513 1515 1516 1516 1518 1518 1520 1521 1520 1520 1521 1521 1521 1519 1518 1517 1517 1516
1433 1432 1436 1444 1449 1456 1465 1466 1471 1471 1476 1478 1480 1483 1485 1487 1490 1492 1494 1498 1500 1503 1505 1507 1509 1510 1511 1514 1516 1515 1518 1519 1519 1520 1521 1521 1520 1520 1520 1519 1517 1516 1514
1433 1427 1428 1433 1440 1448 1458 1462 1466 1466 1471 1472 1475 1478 1482 1483 1486 1487 1491 1495 1497 1500 1502 1505 1507 1509 1510 1511 1513 1514 1516 1518 1519 1519 1518 1520 1521 1520 1520 1520 1520 1519 1514
1422 1425 1429 1432 1435 1441 1448 1456 1461 1464 1468 1471 1472 1475 1478 1480 1482 1484 1488 1491 1492 1495 1498 1501 1504 1506 1507 1509 1510 1512 1514 1517 1517 1519 1517 1517 1518 1518 1519 1518 1518 1519 1516
1409 1411 1416 1427 1435 1440 1447 1454 1458 1463 1466 1466 1466 1470 1473 1477 1480 1481 1485 1487 1489 1492 1495 1497 1500 1503 1504 1506 1506 1507 1508 1508 1514 1517 1514 1515 1515 1515 1517 1516 1517 1516 1515
1405 1410 1413 1417 1423 1432 1444 1449 1453 1455 1458 1461 1463 1466 1469 1472 1475 1477 1480 1484 1487 1489 1492 1494 1496 1499 1501 1503 1504 1504 1505 1506 1508 1515 1516 1514 1515 1512 1513 1514 1515 1514 1513
1408 1409 1409 1414 1420 1425 1431 1441 1448 1453 1456 1458 1461 1463 1466 1468 1470 1473 1477 1480 1481 1483 1485 1489 1492 1495 1498 1499 1500 1502 1502 1504 1505 1508 1512 1514 1514 1513 1511 1510 1512 1512 1512
1410 1409 1411 1416 1416 1425 1433 1435 1438 1446 1451 1452 1456 1460 1463 1465 1467 1470 1473 1475 1478 1480 1482 1485 1488 1491 1493 1496 1498 1500 1500 1501 1502 1503 1507 1510 1511 1511 1512 1512 1512 1511 1510
Wind_Speed
22 21 24 22 20 17 15 13 12 11 10 9 8 7 6 5 5 5 5 4 4 3 3 2 2 1 0 0 1 1 1 2 3 4 5 7 8 8 4 5 5 7 6
21 20 25 23 20 17 15 14 12 11 9 9 8 7 6 5 5 4 4 4 4 3 2 1 1 1 1 2 2 2 2 3 3 6 7 6 8 12 6 4 5 6 6
19 20 26 23 20 18 16 15 13 12 10 10 8 7 6 6 5 4 4 4 3 3 2 1 1 2 2 2 3 3 3 3 5 10 10 7 4 8 10 3 5 5 5
16 22 26 23 20 18 16 15 14 12 10 10 9 8 7 6 6 5 5 4 3 2 2 3 4 4 4 3 3 4 3 2 5 7 7 7 6 6 9 5 5 5 6
11 23 25 23 20 18 17 15 14 12 12 11 11 10 9 7 8 7 6 6 5 4 3 4 5 5 5 5 4 4 3 2 5 6 9 4 8 7 8 5 4 5 7
8 21 23 22 20 19 17 16 15 14 13 12 10 9 9 8 8 7 7 7 7 6 6 7 7 7 7 7 6 6 4 1 6 7 4 8 9 8 9 5 4 4 5
23 22 18 23 21 19 18 16 14 13 12 11 10 9 10 9 7 7 7 6 6 7 8 8 9 8 8 7 7 6 5 2 3 7 7 8 7 10 9 5 3 3 5
25 25 20 22 20 18 16 15 14 13 13 12 12 11 9 8 7 7 7 7 6 6 7 7 8 8 8 8 7 7 5 2 5 3 7 10 10 12 12 6 4 4 4
20 22 22 23 21 19 18 17 15 14 13 12 11 9 8 7 7 6 6 6 6 6 6 6 5 5 6 6 5 5 3 0 4 5 8 10 12 13 10 7 5 5 5
23 22 22 23 21 20 19 17 15 14 13 12 11 10 9 8 7 7 8 7 6 5 6 6 6 5 5 5 5 4 2 8 7 10 9 11 11 11 9 6 5 5 5
22 21 21 22 22 22 20 19 18 16 14 13 12 11 9 8 9 9 5 4 5 4 3 3 2 2 2 3 8 4 2 3 4 8 10 8 8 8 4 4 6 7 6
22 22 21 20 22 23 22 21 19 17 16 16 15 13 11 6 7 4 4 3 2 2 1 1 2 3 6 6 5 5 0 4 8 12 13 12 14 8 4 4 6 7 6
22 23 23 23 21 22 23 23 21 20 18 18 17 16 14 17 12 6 4 4 4 3 3 3 3 3 3 11 10 8 4 11 10 11 13 14 11 8 9 8 7 7 6
20 24 23 22 25 22 23 23 22 22 21 20 19 20 18 14 13 6 2 3 3 5 4 7 1 1 2 3 3 2 8 13 10 7 10 8 7 10 11 10 9 5 6
22 23 24 26 28 25 24 23 21 22 23 22 22 22 16 14 14 15 14 10 9 5 6 6 3 2 3 3 3 4 4 10 6 7 9 7 7 7 8 7 6 5 7
25 25 28 28 29 29 28 24 24 24 22 23 22 23 20 18 15 14 12 11 11 9 7 6 4 4 3 3 4 5 6 7 9 4 6 8 8 9 9 7 2 4 5
28 33 33 33 31 29 29 27 29 28 26 25 24 24 23 20 17 15 14 12 11 8 7 8 7 5 3 3 2 5 3 3 8 9 5 5 8 10 10 7 6 3 2
28 37 36 34 35 33 31 31 30 28 28 26 26 24 24 20 19 17 16 16 13 12 10 9 8 4 7 7 6 6 4 1 1 4 8 4 2 9 9 7 6 6 3
30 39 41 36 35 35 33 32 28 29 26 27 27 26 26 23 20 19 18 16 14 13 12 9 11 10 8 8 6 8 7 3 6 2 2 2 1 3 6 7 9 8 8
31 40 41 38 37 35 33 32 30 30 28 28 27 27 27 25 23 22 19 17 16 14 13 13 11 12 13 11 7 6 8 6 4 3 4 3 6 4 4 8 9 11 14
25 38 42 42 41 38 36 35 33 34 30 30 28 29 25 26 25 23 20 19 17 15 16 13 11 9 11 15 12 5 5 7 6 2 5 2 6 6 6 4 3 6 16
32 35 39 41 42 41 40 38 34 33 32 30 29 27 26 25 25 23 20 21 21 19 17 16 13 9 9 12 15 11 11 8 6 9 5 3 6 1 5 3 2 2 2
36 38 39 40 39 39 37 34 30 29 29 29 32 28 26 25 23 23 21 22 20 16 17 16 17 14 9 10 15 12 9 6 17 13 10 7 3 3 4 3 3 2 3
30 30 38 40 39 37 36 33 33 34 33 32 33 28 26 25 26 25 25 22 20 19 16 16 17 20 13 7 10 13 12 17 9 13 11 5 4 4 4 5 1 5 7
23 26 29 36 35 37 38 34 34 32 29 28 25 26 26 25 25 25 24 23 23 23 21 18 16 16 19 18 14 11 10 10 11 10 15 8 2 5 5 2 1 4 8
9 24 24 32 34 34 36 37 34 34 30 31 28 28 26 26 25 23 23 24 25 22 19 17 15 13 15 13 11 11 12 10 10 11 10 6 3 2 7 4 3 4 10
Wind_Direction
165 174 174 170 165 164 163 161 160 154 151 145 143 140 138 129 129 131 130 130 130 131 138 148 156 161 175 293 288 285 306 318 357 25 30 32 22 12 30 68 46 13 18
172 182 175 170 168 168 170 168 167 161 165 158 155 154 151 149 146 141 137 137 134 142 147 184 216 250 266 280 292 305 320 339 19 45 50 20 31 3 344 22 19 21 28
169 179 173 169 169 172 173 172 172 167 175 170 168 170 170 169 167 161 158 158 158 158 176 208 271 240 254 264 280 303 327 1 43 74 53 360 343 8 339 344 11 20 29
184 178 173 168 172 175 177 175 175 174 181 180 179 183 185 185 188 187 186 186 188 185 216 227 236 285 280 284 297 306 323 7 79 86 62 47 351 331 340 320 354 7 15
167 174 172 171 174 177 178 177 179 180 187 187 188 192 198 197 202 202 203 202 201 203 224 241 251 267 278 280 285 290 303 4 96 63 72 307 280 319 337 328 350 4 5
144 174 173 173 176 180 179 180 186 185 186 184 184 179 177 195 198 202 209 213 217 232 237 245 258 272 275 281 285 289 300 347 114 79 31 267 283 298 313 320 344 349 354
177 183 191 178 179 184 183 185 178 181 187 191 191 194 194 205 216 220 223 225 226 233 242 253 264 272 274 277 283 289 288 283 193 82 302 272 275 287 305 311 326 323 344
182 181 196 184 183 184 185 185 188 189 194 196 201 206 210 215 221 226 228 230 236 242 254 261 271 275 278 277 279 284 288 276 136 57 276 273 277 285 288 291 295 297 313
191 188 194 184 184 186 187 190 190 193 193 198 200 200 207 212 219 225 230 234 235 239 248 254 260 272 279 281 283 292 316 1 106 308 270 257 270 286 285 274 286 291 289
194 195 186 186 188 191 190 190 193 194 195 195 194 197 198 205 211 218 224 229 231 232 241 254 261 269 279 293 295 294 59 78 70 276 252 257 274 293 283 294 275 279 287
191 189 185 192 194 194 194 193 194 193 195 194 194 191 193 204 216 220 218 197 215 219 229 243 258 275 314 11 2 315 126 45 224 288 265 279 289 282 297 322 282 272 282
194 185 194 194 197 196 197 196 195 195 194 200 194 186 159 190 186 156 192 205 205 193 180 137 99 122 139 72 11 77 199 227 250 273 273 284 276 269 271 279 280 290 294
197 191 200 197 197 199 202 197 198 196 196 202 197 182 169 202 202 207 185 190 165 143 178 131 152 183 171 173 206 209 176 98 264 278 279 283 261 250 257 261 271 292 300
199 199 198 201 201 195 204 199 199 195 199 200 195 179 194 190 185 175 146 200 173 198 162 149 231 185 138 188 201 145 155 142 239 287 300 325 269 263 272 274 275 285 300
209 210 200 202 208 193 207 198 198 197 203 199 196 193 184 188 186 179 195 155 201 186 178 179 164 119 97 96 101 94 107 138 252 307 313 349 350 323 301 295 298 282 280
206 214 203 203 214 200 201 194 197 199 199 200 199 192 182 196 192 195 187 187 192 193 188 172 160 138 128 70 93 123 140 145 147 335 352 354 5 7 360 357 329 285 271
205 214 209 204 214 211 201 198 203 200 199 203 202 195 192 198 192 189 187 187 195 191 176 164 156 146 116 90 65 81 74 136 160 129 26 2 358 6 15 27 31 19 35
201 208 214 210 212 213 198 206 207 198 201 198 207 201 196 197 193 190 189 191 189 179 176 172 146 160 146 157 150 141 202 155 111 178 192 172 14 2 348 358 3 2 304
205 206 209 208 209 212 194 207 201 204 194 201 210 204 198 199 194 192 197 200 190 185 184 181 172 166 153 165 186 174 164 172 143 168 28 10 131 195 330 7 3 354 337
213 207 206 211 207 213 194 205 193 204 189 206 210 208 201 199 192 195 206 195 190 195 189 187 188 180 165 157 181 171 166 170 179 115 130 48 11 14 36 47 358 345 341
232 205 205 209 205 206 193 199 195 202 189 203 209 214 201 200 196 200 205 191 184 189 202 186 188 176 178 168 181 204 199 202 150 138 212 153 82 350 18 69 134 29 348
209 206 204 208 204 208 201 200 198 201 194 200 206 212 205 199 196 197 201 192 197 202 199 187 174 192 204 184 172 207 183 180 198 162 232 260 142 194 39 358 339 75 333
198 197 202 205 203 206 199 194 196 195 194 194 208 208 203 198 190 194 193 193 195 195 194 189 183 181 221 194 192 184 198 188 169 194 219 249 212 239 168 286 322 331 242
196 196 205 210 206 206 196 196 196 190 189 196 208 206 200 194 191 196 197 195 184 192 194 191 185 175 179 216 194 199 190 157 165 162 195 257 319 297 295 263 313 290 298
206 197 210 204 202 204 199 198 200 196 192 194 203 203 197 191 193 195 195 191 189 194 194 195 189 183 179 195 198 195 196 195 192 155 167 140 328 325 316 350 30 312 312
206 201 205 204 200 204 207 197 202 195 190 193 191 196 192 190 189 191 189 190 194 197 194 192 191 190 189 196 193 190 185 194 195 183 182 208 220 52 357 52 358 331 316